When you browse on this site, cookies collect data to enhance your experience and personalize the content and advertising you see.
Visit our Privacy Policy to learn more. By continuing to use the site, you agree to this use of cookies and data.
  • In Hungary
  • List of Countries
  • For 7 days
  • Water Temperature
  • Weather Map
  • News
  • Weather Widgets
  • user-avatar
    Login

    Hourly Weather Iraucuba

    Today, 13 November, Wednesday

    Time Temperature Precipitation Wind Pressure Humidity
    00:00 +25°C° 0 mm 3 mps 742 mmHg 83%
    01:00 +26°C° 0 mm 3 mps 742 mmHg 82%
    02:00 +26°C° 0 mm 3 mps 742 mmHg 81%
    03:00 +26°C° 0 mm 3 mps 742 mmHg 80%
    04:00 +26°C° 0 mm 3 mps 742 mmHg 80%
    05:00 +26°C° 0 mm 2 mps 743 mmHg 79%
    06:00 +26°C° 0 mm 2 mps 743 mmHg 78%
    07:00 +28°C° 0 mm 2 mps 744 mmHg 66%
    08:00 +30°C° 0 mm 3 mps 744 mmHg 54%
    09:00 +34°C° 0 mm 3 mps 745 mmHg 44%
    10:00 +36°C° 0 mm 3 mps 744 mmHg 38%
    11:00 +38°C° 0 mm 3 mps 744 mmHg 32%
    12:00 +40°C° 0 mm 3 mps 743 mmHg 26%
    13:00 +40°C° 0 mm 3 mps 743 mmHg 24%
    14:00 +42°C° 0 mm 3 mps 742 mmHg 22%
    15:00 +42°C° 0 mm 3 mps 741 mmHg 21%
    16:00 +37°C° 0 mm 3 mps 741 mmHg 34%
    17:00 +34°C° 0 mm 3 mps 741 mmHg 47%
    18:00 +29°C° 0 mm 4 mps 741 mmHg 61%
    19:00 +28°C° 0 mm 3 mps 742 mmHg 67%
    20:00 +27°C° 0 mm 3 mps 743 mmHg 73%
    21:00 +26°C° 0 mm 2 mps 743 mmHg 79%
    22:00 +26°C° 0 mm 2 mps 743 mmHg 81%
    23:00 +26°C° 0 mm 3 mps 743 mmHg 82%

    Tomorrow, 14 November, Thursday

    Time Temperature Precipitation Wind Pressure Humidity
    00:00 +25°C° 0 mm 3 mps 743 mmHg 83%
    01:00 +25°C° 0 mm 2 mps 743 mmHg 84%
    02:00 +25°C° 0 mm 2 mps 743 mmHg 84%
    03:00 +25°C° 0 mm 2 mps 743 mmHg 85%
    04:00 +25°C° 0.1 mm 2 mps 743 mmHg 82%
    05:00 +26°C° 0.1 mm 2 mps 744 mmHg 78%
    06:00 +27°C° 0.1 mm 2 mps 744 mmHg 75%
    07:00 +28°C° 0 mm 2 mps 745 mmHg 67%
    08:00 +30°C° 0 mm 3 mps 745 mmHg 60%
    09:00 +31°C° 0 mm 3 mps 745 mmHg 52%
    10:00 +34°C° 0 mm 3 mps 745 mmHg 45%
    11:00 +37°C° 0 mm 3 mps 744 mmHg 38%
    12:00 +39°C° 0 mm 3 mps 743 mmHg 32%
    13:00 +39°C° 0 mm 3 mps 743 mmHg 30%
    14:00 +39°C° 0 mm 3 mps 742 mmHg 28%
    15:00 +40°C° 0 mm 3 mps 741 mmHg 26%
    16:00 +37°C° 0 mm 4 mps 741 mmHg 35%
    17:00 +34°C° 0 mm 4 mps 742 mmHg 44%
    18:00 +30°C° 0 mm 4 mps 742 mmHg 54%
    19:00 +29°C° 0 mm 4 mps 742 mmHg 62%
    20:00 +28°C° 0 mm 3 mps 743 mmHg 70%
    21:00 +27°C° 0 mm 3 mps 744 mmHg 78%
    22:00 +26°C° 0 mm 3 mps 743 mmHg 80%
    23:00 +26°C° 0 mm 2 mps 743 mmHg 82%

    Day after tomorrow, 15 November, Friday

    Time Temperature Precipitation Wind Pressure Humidity
    00:00 +25°C° 0 mm 2 mps 742 mmHg 84%
    01:00 +25°C° 0 mm 2 mps 742 mmHg 84%
    02:00 +25°C° 0 mm 2 mps 742 mmHg 85%
    03:00 +25°C° 0 mm 2 mps 742 mmHg 85%
    04:00 +26°C° 0 mm 2 mps 742 mmHg 82%
    05:00 +26°C° 0 mm 2 mps 743 mmHg 79%
    06:00 +27°C° 0 mm 2 mps 743 mmHg 75%
    07:00 +28°C° 0.1 mm 2 mps 744 mmHg 69%
    08:00 +30°C° 0.1 mm 3 mps 744 mmHg 62%
    09:00 +31°C° 0.1 mm 3 mps 744 mmHg 55%
    10:00 +34°C° 0 mm 3 mps 744 mmHg 48%
    11:00 +36°C° 0 mm 3 mps 743 mmHg 40%
    12:00 +38°C° 0 mm 3 mps 743 mmHg 33%
    13:00 +39°C° 0 mm 3 mps 742 mmHg 32%
    14:00 +39°C° 0 mm 3 mps 741 mmHg 31%
    15:00 +39°C° 0 mm 3 mps 740 mmHg 30%
    16:00 +36°C° 0 mm 4 mps 741 mmHg 39%
    17:00 +33°C° 0 mm 4 mps 741 mmHg 48%
    18:00 +30°C° 0 mm 4 mps 741 mmHg 57%
    19:00 +29°C° 0 mm 4 mps 741 mmHg 63%
    20:00 +28°C° 0 mm 3 mps 742 mmHg 69%
    21:00 +27°C° 0 mm 2 mps 742 mmHg 75%
    22:00 +26°C° 0 mm 2 mps 742 mmHg 78%
    23:00 +26°C° 0 mm 2 mps 742 mmHg 82%

    16 November, Saturday

    Time Temperature Precipitation Wind Pressure Humidity
    00:00 +26°C° 0 mm 2 mps 741 mmHg 86%
    01:00 +26°C° 0 mm 2 mps 741 mmHg 84%
    02:00 +26°C° 0 mm 2 mps 741 mmHg 81%
    03:00 +26°C° 0 mm 2 mps 741 mmHg 79%
    04:00 +26°C° 0 mm 2 mps 741 mmHg 80%
    05:00 +26°C° 0 mm 2 mps 741 mmHg 80%
    06:00 +26°C° 0 mm 2 mps 742 mmHg 80%
    07:00 +28°C° 0 mm 2 mps 742 mmHg 72%
    08:00 +29°C° 0 mm 3 mps 743 mmHg 63%
    09:00 +30°C° 0 mm 3 mps 743 mmHg 55%
    10:00 +34°C° 0 mm 3 mps 743 mmHg 48%
    11:00 +36°C° 0 mm 3 mps 742 mmHg 40%
    12:00 +38°C° 0 mm 3 mps 742 mmHg 33%
    13:00 +38°C° 0 mm 3 mps 741 mmHg 32%
    14:00 +40°C° 0 mm 4 mps 740 mmHg 31%
    15:00 +40°C° 0 mm 4 mps 740 mmHg 30%
    16:00 +36°C° 0 mm 4 mps 740 mmHg 39%
    17:00 +34°C° 0 mm 4 mps 740 mmHg 47%
    18:00 +30°C° 0 mm 4 mps 740 mmHg 55%
    19:00 +29°C° 0 mm 4 mps 740 mmHg 60%
    20:00 +28°C° 0 mm 3 mps 741 mmHg 66%
    21:00 +27°C° 0 mm 3 mps 741 mmHg 71%
    22:00 +26°C° 0 mm 2 mps 741 mmHg 76%
    23:00 +26°C° 0 mm 2 mps 741 mmHg 81%

    17 November, Sunday

    Time Temperature Precipitation Wind Pressure Humidity
    00:00 +25°C° 0 mm 1 mps 741 mmHg 86%
    01:00 +25°C° 0 mm 1 mps 741 mmHg 86%
    02:00 +25°C° 0 mm 1 mps 740 mmHg 87%
    03:00 +25°C° 0 mm 1 mps 740 mmHg 87%
    04:00 +25°C° 0 mm 1 mps 741 mmHg 86%
    05:00 +25°C° 0 mm 1 mps 741 mmHg 84%
    06:00 +26°C° 0 mm 1 mps 742 mmHg 82%
    07:00 +28°C° 0 mm 2 mps 742 mmHg 72%
    08:00 +30°C° 0 mm 2 mps 743 mmHg 61%
    09:00 +33°C° 0 mm 3 mps 743 mmHg 51%
    10:00 +35°C° 0 mm 3 mps 743 mmHg 44%
    11:00 +37°C° 0 mm 3 mps 742 mmHg 37%
    12:00 +40°C° 0 mm 4 mps 742 mmHg 30%
    13:00 +40°C° 0 mm 4 mps 741 mmHg 30%
    14:00 +40°C° 0 mm 4 mps 741 mmHg 30%
    15:00 +40°C° 0 mm 5 mps 740 mmHg 30%
    16:00 +36°C° 0 mm 4 mps 740 mmHg 38%
    17:00 +33°C° 0 mm 4 mps 740 mmHg 47%
    18:00 +30°C° 0 mm 4 mps 741 mmHg 56%
    19:00 +29°C° 0 mm 3 mps 741 mmHg 63%
    20:00 +27°C° 0 mm 3 mps 741 mmHg 70%
    21:00 +26°C° 0 mm 2 mps 742 mmHg 77%
    22:00 +26°C° 0 mm 2 mps 742 mmHg 81%
    23:00 +26°C° 0 mm 2 mps 742 mmHg 84%

    18 November, Monday

    Time Temperature Precipitation Wind Pressure Humidity
    00:00 +25°C° 0 mm 2 mps 741 mmHg 88%
    01:00 +25°C° 0 mm 1 mps 741 mmHg 90%
    02:00 +25°C° 0 mm 1 mps 741 mmHg 92%
    03:00 +24°C° 0 mm 1 mps 741 mmHg 94%
    04:00 +25°C° 0 mm 1 mps 742 mmHg 93%
    05:00 +25°C° 0 mm 1 mps 742 mmHg 92%
    06:00 +25°C° 0 mm 1 mps 743 mmHg 91%
    07:00 +28°C° 0 mm 2 mps 743 mmHg 77%
    08:00 +30°C° 0 mm 2 mps 743 mmHg 64%
    09:00 +34°C° 0 mm 3 mps 744 mmHg 51%
    10:00 +36°C° 0 mm 3 mps 743 mmHg 45%
    11:00 +38°C° 0 mm 3 mps 743 mmHg 38%
    12:00 +40°C° 0 mm 4 mps 742 mmHg 32%
    13:00 +40°C° 0 mm 4 mps 742 mmHg 31%
    14:00 +40°C° 0 mm 4 mps 741 mmHg 30%
    15:00 +41°C° 0 mm 4 mps 740 mmHg 29%
    16:00 +37°C° 0 mm 4 mps 740 mmHg 39%
    17:00 +34°C° 0 mm 4 mps 741 mmHg 49%
    18:00 +32°C° 0 mm 4 mps 741 mmHg 58%
    19:00 +29°C° 0 mm 4 mps 741 mmHg 64%
    20:00 +28°C° 0 mm 3 mps 742 mmHg 70%
    21:00 +27°C° 0 mm 2 mps 742 mmHg 77%
    22:00 +27°C° 0 mm 2 mps 742 mmHg 79%
    23:00 +27°C° 0 mm 2 mps 742 mmHg 82%
    Show more